TimeCST,TemperatureF,Dew PointF,Humidity,Sea Level PressureIn,VisibilityMPH,Wind Direction,Wind SpeedMPH,Gust SpeedMPH,PrecipitationIn,Events,Conditions,WindDirDegrees,DateUTC
12:15 AM,46.4,21.2,37,29.75,10.0,West,17.3,27.6,N/A,,Clear,270,2012-12-09 06:15:00
12:35 AM,46.4,21.2,37,29.75,10.0,WNW,19.6,-,N/A,,Clear,290,2012-12-09 06:35:00
1:15 AM,44.6,21.2,39,29.76,10.0,North,-9999.0,-,N/A,,Clear,0,2012-12-09 07:15:00
1:35 AM,42.8,21.2,42,29.75,10.0,WNW,25.3,-,N/A,,Clear,300,2012-12-09 07:35:00
1:55 AM,44.6,21.2,39,29.76,10.0,WNW,24.2,-,N/A,,Clear,300,2012-12-09 07:55:00
2:15 AM,42.8,23.0,46,29.80,10.0,NW,12.7,20.7,N/A,,Clear,310,2012-12-09 08:15:00
2:35 AM,44.6,21.2,39,29.82,10.0,NW,13.8,26.5,N/A,,Clear,320,2012-12-09 08:35:00
2:55 AM,37.4,30.2,75,29.85,7.0,North,18.4,-,N/A,,Clear,10,2012-12-09 08:55:00
3:15 AM,37.4,32.0,81,29.87,7.0,NNE,19.6,42.6,N/A,,Mostly Cloudy,20,2012-12-09 09:15:00
3:35 AM,37.4,33.8,87,29.88,10.0,NNE,19.6,27.6,N/A,,Overcast,20,2012-12-09 09:35:00
3:55 AM,39.2,33.8,81,29.88,7.0,NNE,19.6,46.0,N/A,,Overcast,20,2012-12-09 09:55:00
4:15 AM,39.2,32.0,75,29.88,10.0,NNE,28.8,43.7,N/A,,Overcast,30,2012-12-09 10:15:00
4:35 AM,37.4,30.2,75,29.89,7.0,NNE,26.5,42.6,N/A,,Overcast,30,2012-12-09 10:35:00
4:55 AM,35.6,28.4,75,29.90,10.0,North,16.1,23.0,N/A,,Scattered Clouds,10,2012-12-09 10:55:00
5:15 AM,33.8,24.8,70,29.91,10.0,NNE,21.9,33.4,N/A,,Clear,20,2012-12-09 11:15:00
5:35 AM,33.8,23.0,65,29.91,10.0,NNE,18.4,27.6,N/A,,Clear,20,2012-12-09 11:35:00
5:55 AM,33.8,21.2,60,29.93,10.0,NNE,17.3,38.0,N/A,,Clear,20,2012-12-09 11:55:00
6:15 AM,32.0,21.2,64,29.94,10.0,NNE,19.6,32.2,N/A,,Clear,20,2012-12-09 12:15:00
6:35 AM,32.0,21.2,64,29.95,10.0,NNE,15.0,23.0,N/A,,Clear,20,2012-12-09 12:35:00
6:55 AM,32.0,19.4,60,29.96,10.0,NNE,12.7,25.3,N/A,,Clear,20,2012-12-09 12:55:00
7:15 AM,32.0,19.4,60,29.98,10.0,North,10.4,-,N/A,,Clear,10,2012-12-09 13:15:00
7:35 AM,30.2,19.4,64,29.99,10.0,NNE,10.4,18.4,N/A,,Clear,20,2012-12-09 13:35:00
7:55 AM,30.2,19.4,64,30.00,10.0,North,8.1,-,N/A,,Clear,10,2012-12-09 13:55:00
8:15 AM,30.2,19.4,64,30.00,10.0,North,10.4,-,N/A,,Clear,10,2012-12-09 14:15:00
8:35 AM,32.0,19.4,60,30.00,10.0,NNE,11.5,-,N/A,,Clear,20,2012-12-09 14:35:00
8:55 AM,32.0,19.4,60,30.02,10.0,NNE,16.1,24.2,N/A,,Clear,20,2012-12-09 14:55:00
9:15 AM,33.8,19.4,56,30.02,10.0,North,-9999.0,-,N/A,,Clear,0,2012-12-09 15:15:00
9:35 AM,33.8,19.4,56,30.03,10.0,NNE,23.0,40.3,N/A,,Clear,30,2012-12-09 15:35:00
9:55 AM,35.6,17.6,48,30.03,10.0,NNE,27.6,40.3,N/A,,Clear,30,2012-12-09 15:55:00
10:35 AM,35.6,17.6,48,30.05,10.0,NE,32.2,-,N/A,,Clear,40,2012-12-09 16:35:00
10:55 AM,37.4,17.6,45,30.05,10.0,North,-9999.0,-,N/A,,Clear,0,2012-12-09 16:55:00
11:15 AM,37.4,15.8,41,30.06,10.0,North,-9999.0,-,N/A,,Clear,0,2012-12-09 17:15:00
11:35 AM,39.2,15.8,39,30.05,10.0,NE,25.3,-,N/A,,Clear,50,2012-12-09 17:35:00
11:55 AM,37.4,14.0,38,30.05,10.0,NE,23.0,-,N/A,,Clear,40,2012-12-09 17:55:00
12:15 PM,39.2,14.0,36,30.04,10.0,North,-9999.0,-,N/A,,Clear,0,2012-12-09 18:15:00
12:35 PM,39.2,14.0,36,30.04,10.0,NNE,19.6,46.0,N/A,,Clear,20,2012-12-09 18:35:00
12:55 PM,39.2,14.0,36,30.02,10.0,NE,23.0,36.8,N/A,,Clear,40,2012-12-09 18:55:00
1:15 PM,39.2,12.2,33,30.01,10.0,NE,21.9,-,N/A,,Clear,40,2012-12-09 19:15:00
1:35 PM,39.2,12.2,33,30.00,10.0,NNE,26.5,41.4,N/A,,Clear,30,2012-12-09 19:35:00
1:55 PM,39.2,12.2,33,30.00,10.0,NNE,23.0,44.9,N/A,,Clear,30,2012-12-09 19:55:00
2:15 PM,41.0,12.2,31,30.00,10.0,NE,23.0,38.0,N/A,,Clear,50,2012-12-09 20:15:00
2:35 PM,39.2,12.2,33,30.00,10.0,North,-9999.0,-,N/A,,Clear,0,2012-12-09 20:35:00
2:55 PM,39.2,12.2,33,30.01,10.0,NE,20.7,35.7,N/A,,Clear,40,2012-12-09 20:55:00
3:15 PM,37.4,12.2,36,30.02,10.0,NNE,23.0,28.8,N/A,,Clear,30,2012-12-09 21:15:00
3:35 PM,37.4,12.2,36,30.02,10.0,NE,20.7,31.1,N/A,,Clear,40,2012-12-09 21:35:00
3:55 PM,37.4,12.2,36,30.03,10.0,NE,19.6,27.6,N/A,,Clear,40,2012-12-09 21:55:00
4:15 PM,33.8,12.2,41,30.04,10.0,NNE,24.2,35.7,N/A,,Clear,20,2012-12-09 22:15:00
4:35 PM,33.8,12.2,41,30.05,10.0,NNE,20.7,32.2,N/A,,Clear,20,2012-12-09 22:35:00
4:55 PM,32.0,12.2,44,30.06,10.0,NNE,23.0,-,N/A,,Clear,20,2012-12-09 22:55:00
5:15 PM,32.0,12.2,44,30.07,10.0,NNE,23.0,26.5,N/A,,Clear,20,2012-12-09 23:15:00
5:35 PM,30.2,10.4,44,30.09,10.0,NNE,16.1,31.1,N/A,,Clear,20,2012-12-09 23:35:00
5:55 PM,30.2,10.4,44,30.10,10.0,North,-9999.0,-,N/A,,Clear,0,2012-12-09 23:55:00
6:15 PM,30.2,10.4,44,30.10,10.0,North,15.0,-,N/A,,Clear,10,2012-12-10 00:15:00
6:35 PM,32.0,10.4,41,30.12,10.0,North,-9999.0,-,N/A,,Scattered Clouds,0,2012-12-10 00:35:00
6:55 PM,32.0,10.4,41,30.13,10.0,North,-9999.0,-,N/A,,Scattered Clouds,0,2012-12-10 00:55:00
7:15 PM,30.2,6.8,37,30.15,10.0,North,-9999.0,-,N/A,,Scattered Clouds,0,2012-12-10 01:15:00
7:35 PM,30.2,8.6,40,30.14,10.0,North,26.5,-,N/A,,Scattered Clouds,10,2012-12-10 01:35:00
7:55 PM,30.2,10.4,44,30.16,10.0,North,25.3,34.5,N/A,,Scattered Clouds,10,2012-12-10 01:55:00
8:15 PM,30.2,8.6,40,30.15,10.0,North,26.5,33.4,N/A,,Scattered Clouds,10,2012-12-10 02:15:00
8:35 PM,28.4,8.6,43,30.17,10.0,North,-9999.0,-,N/A,,Scattered Clouds,0,2012-12-10 02:35:00
8:55 PM,28.4,14.0,55,30.17,10.0,North,23.0,-,N/A,Snow,Light Snow,360,2012-12-10 02:55:00
9:15 PM,24.8,19.4,80,30.20,0.5,North,-9999.0,-,N/A,Snow,Light Snow,0,2012-12-10 03:15:00
9:35 PM,23.0,19.4,86,30.20,2.0,North,21.9,26.5,N/A,Snow,Light Snow,10,2012-12-10 03:35:00
9:55 PM,23.0,19.4,86,30.21,3.0,North,19.6,26.5,N/A,Snow,Light Snow,10,2012-12-10 03:55:00
10:15 PM,23.0,19.4,86,30.19,10.0,North,13.8,20.7,N/A,,Scattered Clouds,10,2012-12-10 04:15:00
10:35 PM,23.0,19.4,86,30.20,10.0,North,12.7,-,N/A,,Clear,360,2012-12-10 04:35:00
10:55 PM,23.0,19.4,86,30.22,10.0,North,9.2,-,N/A,,Clear,350,2012-12-10 04:55:00
11:15 PM,21.2,17.6,86,30.22,10.0,NNW,8.1,-,N/A,,Clear,340,2012-12-10 05:15:00
11:35 PM,21.2,17.6,86,30.22,10.0,NNW,9.2,-,N/A,,Clear,340,2012-12-10 05:35:00
11:55 PM,23.0,17.6,80,30.22,10.0,North,-9999.0,-,N/A,,Clear,0,2012-12-10 05:55:00